Starlink 31779

operational
NORAD ID: 59744 Int'l Des: 2024-090 Owner: SPXS Country: US Constellation: starlink
LEOCIRCULAR

Starlink 31779について

説明を読み込み中...

リアルタイム位置

3D地球を読み込み中...

次回通過

高度履歴

Altitude vs Time

uPlot chart will show altitude changes over time

軌道要素

1 59744U 24090Q 25259.24592451 .00002307 00000-0 93332-4 0 9995
2 59744 43.0040 88.4538 0001823 273.5009 86.5634 15.27577046 76760
Epoch: Sep 16, 2025 • Age: 9 hours

現在のステータス

高度 490.6 km
速度 7.62 km/s
衛星直下点 -30.91°S, 89.08°E
打ち上げ日 May 13, 2024
運用期間 1.3 years
タイプ internet

技術仕様

分類 Payload
質量 730.00 kg
乾燥質量 700.00 kg
総質量 730.00 kg
長さ 0.30 m
直径 4.10 m
スパン 29.00 m
形状 Box + pan
製造者 SPXS
バスタイプ Starlink V2M
フェーズステータス In Orbit
所有者/国 SPXS/US

大規模コンステレーション

Loading constellations...